Lid_Strength_Index
10 13 14 12 11 13 14 15 15 13 10 13 12 11 10 7 6 6 5 5 5 4 3 2 2 2 1 1 1 1 1 1 1 1 1 1 1 1 0 -0 -1 -1 -1 -1
11 14 12 12 13 13 14 15 15 13 12 13 14 14 11 9 8 6 6 6 5 4 3 3 2 2 2 2 1 1 1 1 1 1 1 1 1 0 0 -0 -0 -1 -1 -1
13 12 10 12 14 15 14 15 15 15 14 13 14 16 15 12 10 9 8 6 5 5 4 3 3 3 2 2 2 1 1 1 1 0 0 1 0 0 1 1 0 -0 -1 -1
11 11 12 12 13 14 16 12 14 14 15 19 13 20 16 14 13 11 9 8 6 5 4 4 3 3 2 2 1 1 1 1 1 0 1 2 2 3 1 1 0 0 -0 -0
11 11 12 13 13 12 14 12 12 12 14 15 16 18 16 13 14 12 11 9 7 6 5 4 4 3 2 2 2 1 1 1 1 1 1 1 2 1 1 1 1 0 0 -0
8 6 9 10 10 11 11 12 13 13 13 18 17 16 18 15 13 12 11 10 8 7 5 4 3 3 3 2 2 1 1 1 1 1 1 1 2 2 2 1 2 1 1 1
9 9 7 7 10 9 11 14 18 19 19 20 14 15 17 12 11 11 11 9 8 7 7 6 5 4 4 2 2 2 2 2 1 1 1 1 1 1 2 1 2 2 3 5
13 14 9 7 9 11 11 12 17 21 20 18 13 17 16 10 9 9 9 8 8 8 7 7 6 4 4 4 2 2 2 2 2 1 2 1 1 2 4 4 6 7 7 7
13 13 8 7 7 8 11 13 10 14 16 19 17 14 12 9 11 9 8 7 7 7 7 7 6 5 5 4 3 2 2 2 3 5 5 6 6 7 8 8 8 8 8 9
11 15 9 8 7 7 9 8 14 13 20 21 18 17 16 12 11 9 9 9 8 6 6 6 6 5 5 5 5 5 5 6 6 7 7 8 9 9 9 10 10 10 10 10
10 12 12 9 10 11 10 13 12 12 14 19 19 17 11 11 10 10 9 8 8 7 6 6 6 6 6 7 8 8 8 8 9 9 10 10 11 11 11 11 12 11 11 11
10 12 15 13 9 7 8 11 11 17 16 14 14 16 10 10 10 9 9 9 8 7 7 7 6 6 7 8 9 11 10 10 10 10 10 11 12 12 12 12 12 12 13 13
10 13 17 14 11 10 11 10 10 11 12 16 18 15 8 9 9 9 9 9 8 8 8 8 8 7 8 9 10 10 11 12 12 12 11 12 13 13 14 14 13 13 14 14
10 13 15 17 13 11 13 12 11 12 16 15 14 13 11 10 9 8 8 8 8 8 8 9 9 8 9 10 11 12 13 12 13 13 13 14 14 15 14 14 15 15 14 14
11 15 13 12 11 11 12 14 13 14 13 15 13 13 10 9 9 9 7 7 7 7 8 9 9 10 10 12 13 13 14 14 14 14 14 15 15 15 16 16 16 15 15 15
10 14 13 15 12 12 14 13 13 12 12 12 12 12 9 7 7 7 7 8 8 8 8 8 9 10 11 12 13 14 14 15 15 16 16 16 16 16 16 16 16 16 16 16
13 14 15 17 14 14 18 14 14 13 11 11 13 10 7 7 7 6 6 7 7 7 8 9 10 10 11 13 14 15 16 15 15 17 16 16 16 16 16 16 16 17 17 16
14 15 15 17 16 22 14 10 10 11 10 9 9 8 7 7 6 6 5 6 7 7 8 9 10 11 12 13 15 15 16 16 16 16 17 16 16 16 16 17 17 17 17 16
13 15 17 19 19 16 15 12 12 13 13 9 10 8 7 7 6 6 5 5 6 6 8 9 10 11 12 14 14 15 16 16 16 16 17 17 16 17 17 17 16 17 16 17
15 14 17 20 22 23 16 12 10 10 17 10 10 10 10 9 12 9 5 5 6 8 10 11 12 12 13 14 14 14 16 16 17 17 17 17 17 17 17 17 17 17 17 18
19 18 20 19 21 18 14 13 12 20 16 10 11 11 12 11 9 6 6 8 9 10 12 11 11 12 13 14 14 15 15 16 17 17 17 17 17 17 17 17 17 18 18 17
19 19 20 19 20 23 13 14 17 14 11 11 10 10 11 9 7 7 9 11 11 12 13 13 13 13 14 14 14 15 15 16 16 16 17 18 17 17 17 17 17 17 16 17
19 16 16 17 17 13 12 12 11 11 12 11 11 11 9 8 9 10 10 11 12 11 12 12 13 14 14 14 13 14 15 16 16 17 17 17 17 16 16 16 17 17 16 15
16 14 17 17 14 14 13 11 11 11 12 11 10 9 9 9 10 11 10 11 12 12 12 12 13 13 14 14 14 14 14 15 16 16 17 17 17 17 16 15 15 14 15 15
15 15 16 16 14 13 12 11 11 11 10 11 10 10 9 9 10 10 11 11 11 11 12 12 13 13 13 13 14 14 14 15 15 16 16 16 15 16 16 15 15 15 15 14
14 16 17 16 13 12 12 11 11 12 11 11 11 10 10 10 10 10 11 11 11 12 13 13 12 13 13 13 14 15 15 15 16 16 16 15 15 16 15 15 16 16 15 15